Regional Weather Roundup
Issued by NWS Raleigh/Durham, NC

Home | Current Version | Previous Version | Text Only | Print | Product List | Glossary On
Versions: 1 2 3 4 5 6 7 8 9 10 11 12 13 14 15 16 17 18 19 20 21 22 23 24 25 26 27 28 29 30 31 32 33 34 35 36 37 38 39 40 41 42 43 44 45 46 47 48 49 50
000
ASUS42 KRAH 230710
RWRRAH
NORTH CAROLINA WEATHER ROUNDUP
NATIONAL WEATHER SERVICE RALEIGH NC
300 AM EDT MON APR 23 2018

NOTE: "FAIR" INDICATES FEW OR NO CLOUDS BELOW 12,000 FEET WITH NO
SIGNIFICANT WEATHER AND/OR OBSTRUCTIONS TO VISIBILITY.

NCZ001-053-055-056-065-067-230800-
WESTERN NORTH CAROLINA

CITY           SKY/WX    TMP DP  RH WIND       PRES   REMARKS
ASHEVILLE      CLOUDY    54  48  80 SE9       30.19F
JEFFERSON      CLOUDY    48  46  90 SE7       30.24F
MORGANTON      CLOUDY    54  54  97 NE3       30.26F
HICKORY        CLOUDY    56  51  84 VRB3      30.23F
RUTHERFORDTON  CLOUDY    56  52  85 E6        30.22F
MOUNT AIRY     MOCLDY    58  47  67 E7        30.29S
BOONE          LGT RAIN  48  47  97 SE10G17   30.23F
$$

NCZ021-022-025-041-071-084-088-230800-
CENTRAL NORTH CAROLINA

CITY           SKY/WX    TMP DP  RH WIND       PRES   REMARKS
CHARLOTTE      MOCLDY    59  51  75 SE10      30.24S
GREENSBORO     MOCLDY    57  44  62 SE8       30.27F
WINSTON-SALEM  CLOUDY    57  47  69 SE9       30.28F
RALEIGH-DURHAM CLOUDY    53  42  66 E6        30.31F
FORT BRAGG     FAIR      56  42  60 E7        30.26S
FAYETTEVILLE   MOCLDY    55  41  59 E6        30.26F
BURLINGTON     FAIR      57  36  45 E5        30.28F
LAURINBURG     FAIR      56  42  59 E7        30.26F
$$

NCZ011-015-027-028-043-044-047-080-103-230800-
NORTHEASTERN NORTH CAROLINA

CITY           SKY/WX    TMP DP  RH WIND       PRES   REMARKS
ROCKY MT-WILSO FAIR      50  44  80 CALM      30.33F
GREENVILLE     FAIR      50  45  81 CALM      30.34S
WASHINGTON     FAIR      49  46  90 CALM      30.34S
ELIZABETH CITY FAIR      51  47  86 E9        30.37S
MANTEO         FAIR      53  49  84 E9        30.36S
CAPE HATTERAS  FAIR      58  51  78 E6        30.33F
$$

NCZ078-087-090-091-093-098-101-230800-
SOUTHEASTERN NORTH CAROLINA

CITY           SKY/WX    TMP DP  RH WIND       PRES   REMARKS
LUMBERTON      FAIR      56  47  71 E8        30.23F
GOLDSBORO      CLOUDY    54  49  84 E8        30.29F
KINSTON        FAIR      54  50  86 E5        30.32F
KENANSVILLE    FAIR      55  50  82 E3        30.29F
NEW BERN       FAIR      54  52  93 NE7       30.32F
CHERRY POINT   NOT AVBL
BEAUFORT       FAIR      62  51  67 SE6       30.30F
JACKSONVILLE   FAIR      59  54  83 E8        30.29F
WILMINGTON     FAIR      59  53  80 NE7       30.25F
$$




USA.gov is the U.S. government's official web portal to all federal, state and local government web resources and services.